Regional Weather Roundup
Issued by NWS Charleston, WV

Home | Current Version | Previous Version | Text Only | Print | Product List | Glossary On
Versions: 1 2 3 4 5 6 7 8 9 10 11 12 13 14 15 16 17 18 19 20 21 22 23 24 25 26 27
000
ASUS41 KRLX 140810
RWRRLX
West Virginia Regional Weather Roundup
National Weather Service Charleston WV
300 AM EST THU DEC 14 2017

Note: "fair" indicates few or no clouds below 12,000 feet with no
significant weather and/or obstructions to visibility.

WVZ003-140900-
Northern Panhandle of West Virginia

CITY           SKY/WX    TMP DP  RH WIND       PRES   REMARKS
WHEELING       LGT SNOW  32  28  85 W16G28    29.47R FOG
$$

WVZ009-140900-
Northwest West Virginia

CITY           SKY/WX    TMP DP  RH WIND       PRES   REMARKS
PARKERSBURG    CLOUDY    35  28  75 NW20G29   29.61R
$$

WVZ006-140900-
Western West Virginia

CITY           SKY/WX    TMP DP  RH WIND       PRES   REMARKS
HUNTINGTON     CLOUDY    42  28  57 W12G22    29.63R
$$

WVZ015-140900-
West Central West Virginia

CITY           SKY/WX    TMP DP  RH WIND       PRES   REMARKS
CHARLESTON     CLOUDY    45  24  43 W17G30    29.59R
$$

WVZ022-031-140900-
North Central West Virginia

CITY           SKY/WX    TMP DP  RH WIND       PRES   REMARKS
CLARKSBURG     LGT RAIN  37  31  78 W16G22    29.50R
MORGANTOWN     CLOUDY    35  28  75 SW9       29.48R
$$

WVZ025-035-042-045-140900-
Southern West Virginia

CITY           SKY/WX    TMP DP  RH WIND       PRES   REMARKS
BECKLEY        CLOUDY    35  18  49 W10       29.55R
LOGAN          CLOUDY    43  25  49 SW14G29   29.60R
BLUEFIELD      MOCLDY    34  17  50 W21G30    29.57R
LEWISBURG      CLOUDY    38  19  45 SW13G20   29.53S
$$

WVZ047-140900-
Northern Mountains of West Virginia

CITY           SKY/WX    TMP DP  RH WIND       PRES   REMARKS
ELKINS         LGT RAIN  40  22  48 W22G38    29.46R
$$

WVZ052-140900-
Eastern Panhandle of West Virginia

CITY           SKY/WX    TMP DP  RH WIND       PRES   REMARKS
MARTINSBURG    CLOUDY    27  23  85 CALM      29.46S
PETERSBURG     CLOUDY    43  26  49 W13G35    29.42S
$$




USA.gov is the U.S. government's official web portal to all federal, state and local government web resources and services.